This is the latest recevied weather packets stored in our database for station/object JS2QVS-13. If no packets are shown the sender has not sent any weather packets the latest 10 day(s).
| Time | Temp. | Humidity | Pressure | Rain* | Wind** | Luminosity | Snow |
|---|---|---|---|---|---|---|---|
| 1787809257 | 30.56° C | 72% | 1002.8 hPa | 0 mm | - | - | - |
| 1787808656 | 30.56° C | 72% | 1002.9 hPa | 0 mm | - | - | - |
| 1787808056 | 30.56° C | 70% | 1002.8 hPa | 0 mm | - | - | - |
| 1787807456 | 30.56° C | 69% | 1002.9 hPa | 0 mm | - | - | - |
| 1787806858 | 30.56° C | 68% | 1003 hPa | 0 mm | - | - | - |
| 1787806257 | 31.11° C | 66% | 1003 hPa | 0 mm | - | - | - |
| 1787805657 | 31.67° C | 65% | 1002.9 hPa | 0 mm | - | - | - |
| 1787805058 | 31.11° C | 64% | 1003 hPa | 0 mm | - | - | - |
| 1787804458 | 31.67° C | 64% | 1003 hPa | 0 mm | - | - | - |
| 1787803858 | 31.11° C | 66% | 1003 hPa | 0 mm | - | - | - |
| 1787803258 | 31.67° C | 63% | 1003.2 hPa | 0 mm | - | - | - |
| 1787802657 | 31.11° C | 65% | 1003.5 hPa | 0 mm | - | - | - |
| 1787802057 | 31.11° C | 67% | 1003.5 hPa | 0 mm | - | - | - |
| 1787801457 | 31.11° C | 68% | 1003.6 hPa | 0 mm | - | - | - |
| 1787800857 | 31.11° C | 67% | 1003.6 hPa | 0 mm | - | - | - |
| 1787800257 | 31.11° C | 68% | 1003.6 hPa | 0 mm | - | - | - |
| 1787799657 | 30.56° C | 68% | 1003.8 hPa | 0 mm | - | - | - |
| 1787799057 | 30.56° C | 70% | 1003.9 hPa | 0 mm | - | - | - |
| 1787798457 | 30.56° C | 69% | 1003.9 hPa | 0 mm | - | - | - |
| 1787797857 | 30.56° C | 70% | 1003.9 hPa | 0 mm | - | - | - |
| 1787797257 | 31.11° C | 69% | 1003.9 hPa | 0 mm | - | - | - |
| 1787796661 | 31.11° C | 67% | 1004 hPa | 0 mm | - | - | - |
| 1787796058 | 31.11° C | 67% | 1004 hPa | 0 mm | - | - | - |
| 1787795458 | 31.11° C | 67% | 1004.3 hPa | 0 mm | - | - | - |
| 1787794258 | 31.11° C | 64% | 1004.2 hPa | 0 mm | - | - | - |
* Rain latest hour (hover to see other rain measurements)
** Current wind speed in m/s (hover to see current wind gust speed)